TIBA-1 (44800 NORAD) Tracking and Keplerian Element Data

This shows tracking and keplerian element data for the satellite.

Feedback or suggestion? Click here.




ElementValue
Catalog44800
NameTIBA-1
Epoch Orbit64
Epoch Day23.00049566
Epoch Year2020
RAAN151.4228
Inclination0.0361
Eccentricity0.0002199
Argument of Perigee137.8518
Mean Anonmoly228.1377
Mean Motion1.00273073
Decay Rate1.48E-06
L11 44800U 19080A 20023.00049566 .00000148 00000-0 00000+0 0 9993
L22 44800 0.0361 151.4228 0002199 137.8518 228.1377 1.00273073 648

Live tracking and technical data element details for TIBA-1 (NORAD 44800). TIBA-1 can be tracked NOW for your location showing map with azimuth and elevation plus other details from your city location.

Track the satellite on the map from your city or location and see movement details for azimuth, elevation, latitude, longitude, range, height, and movement on the map or in text.







IsCatalogInMostPopularTable: catalog: 44800, numindb: 9
Update: records affected: 1



GetName: 44800 TIBA-1

Hit Count: updated at: Fri, 24 Jan 2020 14:26:14 GMT